星链-3660 (STARLINK-3660 )

导读

STARLINK-3660是美国太空探索技术公司(SpaceX)星链星座中的一颗卫星,于2022年3月9日发射升空,属于星链互联网星座组网卫星,主要用于为全球提供高速低延迟互联网接入服务,尤其服务偏远地区和网络基础设施薄弱区域,是Starlink大规模星座部署过程中的组成部分。

基本信息
目录编号:
51977
目录名称:
STARLINK-3660
国际标识:
2022-025X
轨道中心:
EARTH
卫星名称:
星链-3660
卫星全名:
星链-3660 (STARLINK-3660 )
卫星状态:
在轨 (已飞行1561 天)
发射日期:
2022-03-09 UTC
国别 :
美国 (US)
星等 :
--
轨道信息
数据来源 国际轨道数据
星历时间: 2026-06-17T20:11:44+0800
5小时前
查看轨道信息
半长轴: 6917.907km
偏心率: 0.0000859
轨道倾角: 53.161°
近地点辐角 82.799°
升交点赤经 290.927°
平近点角 277.310°
近地点: 539.175km
远地点: 540.365km
周期: 95.438分钟
每日圈数: 15.088314
详细信息
固有亮度:
5
最大亮度:
2.5
卫星平台:
Starlink v1.5
覆盖范围:
全球
运营商:
太空探索技术公司
运营商所在国:
美国
制造商(研发单位):
太空探索技术公司
制造商所在国:
美国
使用方式:
暂无
卫星简介
星链(Starlink)计划是由太空探索技术公司(SpaceX)提出的一个巨型低轨卫星互联网星座项目,计划在2019年至2024年间在太空搭建由约1.2万颗卫星组成的“星链”网络,其中1584颗将部署在地球上空550千米处的近地轨道,并从2020年开始工作。该卫星仍在工作。
2D轨道图
3D轨道图
轨道高度分析图
轨道倾角分析图
轨道综合分析图
查看轨道综合分析图